Location: Newark
(34.1333°N, 7.9667°W)
Time: 09:39:33
(UTC+00:00)

S-56A Canister/Altair - Pass Details

Date: 11 December 2021
Orbit: 634 x 2499 km, 38.9° (Epoch: 28 January)

Event Time Altitude Azimuth Distance (km) Brightness Sun altitude
Rises 18:33:10 0° 196° (SSW) 6,112 12.6 -14.2°
Reaches altitude 10° 18:38:12 10° 185° (S) 5,151 12.0 -15.2°
Maximum altitude 18:49:24 26° 137° (SE) 3,820 10.8 -17.4°
Enters shadow 18:55:53 18° 101° (E) 4,086 10.7 -18.7°
